Year,Month,Day,Hour,Minute,Value (Times are PST for temperature in C)
2011,06,02,00,00,11.20
2011,06,02,00,02,11.20
2011,06,02,00,03,11.20
2011,06,02,00,04,11.10
2011,06,02,00,05,11.10
2011,06,02,00,06,11.10
2011,06,02,00,07,11.10
2011,06,02,00,08,11.10
2011,06,02,00,09,11.10
2011,06,02,00,10,11.10
2011,06,02,00,11,11.10
2011,06,02,00,13,11.00
2011,06,02,00,14,11.00
2011,06,02,00,15,11.00
2011,06,02,00,17,11.00
2011,06,02,00,18,11.00
2011,06,02,00,19,10.90
2011,06,02,00,20,10.90
2011,06,02,00,21,10.90
2011,06,02,00,22,10.90
2011,06,02,00,23,10.90
2011,06,02,00,24,10.90
2011,06,02,00,25,10.90
2011,06,02,00,27,10.90
2011,06,02,00,28,11.00
2011,06,02,00,29,10.90
2011,06,02,00,31,11.00
2011,06,02,00,32,10.90
2011,06,02,00,33,11.00
2011,06,02,00,34,10.90
2011,06,02,00,35,10.90
2011,06,02,00,36,10.90
2011,06,02,00,37,10.90
2011,06,02,00,38,10.90
2011,06,02,00,39,10.90
2011,06,02,00,40,10.90
2011,06,02,00,41,10.90
2011,06,02,00,42,10.90
2011,06,02,00,43,10.90
2011,06,02,00,44,10.90
2011,06,02,00,45,10.80
2011,06,02,00,46,10.80
2011,06,02,00,47,10.80
2011,06,02,00,48,10.80
2011,06,02,00,49,10.80
2011,06,02,00,51,10.80
2011,06,02,00,52,10.80
2011,06,02,00,53,10.70
2011,06,02,00,54,10.70
2011,06,02,00,55,10.70
2011,06,02,00,56,10.70
2011,06,02,00,57,10.70
2011,06,02,00,58,10.70
2011,06,02,00,59,10.70
2011,06,02,01,00,10.70
2011,06,02,01,01,10.70
2011,06,02,01,02,10.70
2011,06,02,01,03,10.70
2011,06,02,01,04,10.60
2011,06,02,01,06,10.60
2011,06,02,01,07,10.60
2011,06,02,01,08,10.60
2011,06,02,01,09,10.60
2011,06,02,01,10,10.60
2011,06,02,01,12,10.60
2011,06,02,01,13,10.60
2011,06,02,01,14,10.60
2011,06,02,01,15,10.60
2011,06,02,01,16,10.60
2011,06,02,01,18,10.60
2011,06,02,01,19,10.60
2011,06,02,01,20,10.60
2011,06,02,01,21,10.60
2011,06,02,01,23,10.60
2011,06,02,01,24,10.60
2011,06,02,01,25,10.60
2011,06,02,01,26,10.50
2011,06,02,01,27,10.50
2011,06,02,01,28,10.50
2011,06,02,01,29,10.50
2011,06,02,01,30,10.50
2011,06,02,01,31,10.50
2011,06,02,01,32,10.50
2011,06,02,01,33,10.40
2011,06,02,01,34,10.40
2011,06,02,01,35,10.40
2011,06,02,01,36,10.40
2011,06,02,01,37,10.40
2011,06,02,01,38,10.40
2011,06,02,01,39,10.40
2011,06,02,01,40,10.40
2011,06,02,01,41,10.40
2011,06,02,01,42,10.40
2011,06,02,01,43,10.40
2011,06,02,01,44,10.40
2011,06,02,01,45,10.40
2011,06,02,01,47,10.40
2011,06,02,01,48,10.40
2011,06,02,01,49,10.40
2011,06,02,01,50,10.40
2011,06,02,01,52,10.40
2011,06,02,01,53,10.50
2011,06,02,01,54,10.40
2011,06,02,01,55,10.40
2011,06,02,01,56,10.40
2011,06,02,01,58,10.40
2011,06,02,01,59,10.40
2011,06,02,02,00,10.40
2011,06,02,02,01,10.40
2011,06,02,02,02,10.40
2011,06,02,02,04,10.40
2011,06,02,02,05,10.40
2011,06,02,02,06,10.40
2011,06,02,02,08,10.40
2011,06,02,02,09,10.40
2011,06,02,02,10,10.40
2011,06,02,02,11,10.40
2011,06,02,02,13,10.40
2011,06,02,02,14,10.40
2011,06,02,02,15,10.40
2011,06,02,02,16,10.40
2011,06,02,02,18,10.40
2011,06,02,02,19,10.40
2011,06,02,02,20,10.40
2011,06,02,02,22,10.40
2011,06,02,02,23,10.40
2011,06,02,02,24,10.40
2011,06,02,02,25,10.50
2011,06,02,02,27,10.50
2011,06,02,02,28,10.50
2011,06,02,02,29,10.50
2011,06,02,02,30,10.50
2011,06,02,02,31,10.50
2011,06,02,02,33,10.50
2011,06,02,02,34,10.50
2011,06,02,02,35,10.50
2011,06,02,02,36,10.50
2011,06,02,02,38,10.40
2011,06,02,02,39,10.40
2011,06,02,02,40,10.40
2011,06,02,02,41,10.40
2011,06,02,02,43,10.40
2011,06,02,02,44,10.40
2011,06,02,02,45,10.40
2011,06,02,02,46,10.40
2011,06,02,02,47,10.30
2011,06,02,02,48,10.30
2011,06,02,02,49,10.30
2011,06,02,02,50,10.30
2011,06,02,02,51,10.30
2011,06,02,02,52,10.30
2011,06,02,02,53,10.30
2011,06,02,02,54,10.30
2011,06,02,02,55,10.30
2011,06,02,02,56,10.30
2011,06,02,02,57,10.30
2011,06,02,02,58,10.30
2011,06,02,02,59,10.30
2011,06,02,03,00,10.30
2011,06,02,03,01,10.30
2011,06,02,03,02,10.30
2011,06,02,03,03,10.30
2011,06,02,03,04,10.30
2011,06,02,03,05,10.30
2011,06,02,03,06,10.30
2011,06,02,03,07,10.30
2011,06,02,03,08,10.30
2011,06,02,03,09,10.40
2011,06,02,03,10,10.40
2011,06,02,03,11,10.40
2011,06,02,03,12,10.40
2011,06,02,03,13,10.40
2011,06,02,03,14,10.40
2011,06,02,03,16,10.40
2011,06,02,03,17,10.40
2011,06,02,03,18,10.40
2011,06,02,03,19,10.40
2011,06,02,03,21,10.40
2011,06,02,03,22,10.40
2011,06,02,03,23,10.40
2011,06,02,03,24,10.40
2011,06,02,03,25,10.40
2011,06,02,03,26,10.40
2011,06,02,03,27,10.40
2011,06,02,03,28,10.40
2011,06,02,03,29,10.40
2011,06,02,03,30,10.40
2011,06,02,03,31,10.40
2011,06,02,03,32,10.50
2011,06,02,03,34,10.50
2011,06,02,03,35,10.50
2011,06,02,03,36,10.50
2011,06,02,03,37,10.50
2011,06,02,03,38,10.50
2011,06,02,03,39,10.50
2011,06,02,03,40,10.50
2011,06,02,03,41,10.60
2011,06,02,03,43,10.60
2011,06,02,03,44,10.60
2011,06,02,03,45,10.70
2011,06,02,03,46,10.70
2011,06,02,03,47,10.70
2011,06,02,03,49,10.70
2011,06,02,03,50,10.70
2011,06,02,03,51,10.70
2011,06,02,03,52,10.70
2011,06,02,03,54,10.80
2011,06,02,03,55,10.70
2011,06,02,03,56,10.80
2011,06,02,03,57,10.80
2011,06,02,03,59,10.80
2011,06,02,04,00,10.80
2011,06,02,04,01,10.80
2011,06,02,04,02,10.80
2011,06,02,04,04,10.80
2011,06,02,04,05,10.80
2011,06,02,04,06,10.80
2011,06,02,04,07,10.80
2011,06,02,04,08,10.80
2011,06,02,04,09,10.80
2011,06,02,04,10,10.80
2011,06,02,04,11,10.80
2011,06,02,04,12,10.80
2011,06,02,04,14,10.80
2011,06,02,04,15,10.90
2011,06,02,04,16,10.90
2011,06,02,04,17,10.90
2011,06,02,04,18,10.90
2011,06,02,04,19,10.90
2011,06,02,04,20,10.90
2011,06,02,04,21,10.90
2011,06,02,04,22,10.90
2011,06,02,04,23,10.90
2011,06,02,04,24,10.90
2011,06,02,04,25,10.90
2011,06,02,04,26,10.90
2011,06,02,04,27,10.90
2011,06,02,04,29,10.90
2011,06,02,04,30,10.90
2011,06,02,04,31,10.90
2011,06,02,04,32,11.00
2011,06,02,04,34,11.00
2011,06,02,04,35,11.00
2011,06,02,04,36,11.00
2011,06,02,04,37,11.00
2011,06,02,04,38,11.00
2011,06,02,04,39,11.10
2011,06,02,04,40,11.10
2011,06,02,04,41,11.10
2011,06,02,04,42,11.10
2011,06,02,04,44,11.10
2011,06,02,04,45,11.10
2011,06,02,04,46,11.10
2011,06,02,04,47,11.10
2011,06,02,04,48,11.10
2011,06,02,04,49,11.10
2011,06,02,04,50,11.10
2011,06,02,04,51,11.10
2011,06,02,04,53,11.10
2011,06,02,04,54,11.10
2011,06,02,04,55,11.10
2011,06,02,04,56,11.10
2011,06,02,04,58,11.10
2011,06,02,04,59,11.10
2011,06,02,05,00,11.10
2011,06,02,05,02,11.10
2011,06,02,05,03,11.10
2011,06,02,05,04,11.10
2011,06,02,05,05,11.10
2011,06,02,05,06,11.10
2011,06,02,05,07,11.10
2011,06,02,05,08,11.00
2011,06,02,05,09,11.00
2011,06,02,05,10,11.00
2011,06,02,05,12,11.00
2011,06,02,05,13,10.90
2011,06,02,05,14,11.00
2011,06,02,05,15,10.90
2011,06,02,05,17,10.90
2011,06,02,05,18,10.90
2011,06,02,05,19,10.90
2011,06,02,05,20,10.90
2011,06,02,05,21,10.90
2011,06,02,05,22,10.90
2011,06,02,05,23,10.90
2011,06,02,05,24,10.90
2011,06,02,05,25,10.90
2011,06,02,05,26,10.90
2011,06,02,05,28,10.90
2011,06,02,05,29,10.90
2011,06,02,05,30,10.90
2011,06,02,05,31,10.90
2011,06,02,05,33,10.90
2011,06,02,05,34,10.90
2011,06,02,05,35,10.90
2011,06,02,05,36,10.90
2011,06,02,05,38,10.90
2011,06,02,05,39,10.90
2011,06,02,05,40,10.90
2011,06,02,05,41,10.90
2011,06,02,05,42,10.80
2011,06,02,05,43,10.80
2011,06,02,05,44,10.80
2011,06,02,05,46,10.80
2011,06,02,05,47,10.80
2011,06,02,05,48,10.80
2011,06,02,05,49,10.80
2011,06,02,05,51,10.80
2011,06,02,05,52,10.70
2011,06,02,05,53,10.70
2011,06,02,05,54,10.70
2011,06,02,05,56,10.70
2011,06,02,05,57,10.70
2011,06,02,05,58,10.70
2011,06,02,05,59,10.70
2011,06,02,06,00,10.70
2011,06,02,06,01,10.70
2011,06,02,06,02,10.70
2011,06,02,06,03,10.70
2011,06,02,06,04,10.70
2011,06,02,06,05,10.70
2011,06,02,06,06,10.70
2011,06,02,06,07,10.70
2011,06,02,06,09,10.70
2011,06,02,06,10,10.70
2011,06,02,06,11,10.70
2011,06,02,06,12,10.70
2011,06,02,06,13,10.70
2011,06,02,06,14,10.70
2011,06,02,06,15,10.70
2011,06,02,06,16,10.70
2011,06,02,06,18,10.70
2011,06,02,06,19,10.70
2011,06,02,06,20,10.70
2011,06,02,06,21,10.70
2011,06,02,06,22,10.70
2011,06,02,06,23,10.70
2011,06,02,06,24,10.70
2011,06,02,06,25,10.70
2011,06,02,06,26,10.80
2011,06,02,06,27,10.80
2011,06,02,06,28,10.80
2011,06,02,06,29,10.80
2011,06,02,06,30,10.80
2011,06,02,06,31,10.80
2011,06,02,06,32,10.80
2011,06,02,06,34,10.80
2011,06,02,06,35,10.90
2011,06,02,06,36,10.90
2011,06,02,06,37,10.90
2011,06,02,06,38,10.90
2011,06,02,06,39,10.90
2011,06,02,06,40,10.90
2011,06,02,06,41,10.90
2011,06,02,06,42,10.90
2011,06,02,06,44,11.00
2011,06,02,06,45,11.00
2011,06,02,06,46,11.00
2011,06,02,06,48,11.00
2011,06,02,06,49,11.00
2011,06,02,06,50,11.10
2011,06,02,06,51,11.10
2011,06,02,06,52,11.10
2011,06,02,06,53,11.10
2011,06,02,06,54,11.10
2011,06,02,06,55,11.10
2011,06,02,06,56,11.10
2011,06,02,06,57,11.10
2011,06,02,06,58,11.10
2011,06,02,06,59,11.10
2011,06,02,07,00,11.10
2011,06,02,07,01,11.10
2011,06,02,07,02,11.10
2011,06,02,07,03,11.10
2011,06,02,07,04,11.10
2011,06,02,07,05,11.10
2011,06,02,07,07,11.10
2011,06,02,07,08,11.10
2011,06,02,07,09,11.10
2011,06,02,07,11,11.10
2011,06,02,07,12,11.10
2011,06,02,07,13,11.10
2011,06,02,07,14,11.10
2011,06,02,07,15,11.10
2011,06,02,07,17,11.00
2011,06,02,07,18,11.00
2011,06,02,07,19,11.00
2011,06,02,07,20,10.90
2011,06,02,07,22,10.90
2011,06,02,07,23,10.90
2011,06,02,07,24,10.90
2011,06,02,07,26,10.90
2011,06,02,07,27,10.90
2011,06,02,07,28,10.90
2011,06,02,07,29,10.90
2011,06,02,07,30,10.90
2011,06,02,07,31,10.90
2011,06,02,07,32,10.90
2011,06,02,07,33,10.90
2011,06,02,07,34,10.90
2011,06,02,07,36,10.90
2011,06,02,07,37,10.90
2011,06,02,07,38,10.90
2011,06,02,07,39,10.90
2011,06,02,07,40,10.90
2011,06,02,07,42,10.90
2011,06,02,07,43,10.90
2011,06,02,07,44,10.90
2011,06,02,07,46,11.00
2011,06,02,07,47,10.90
2011,06,02,07,48,10.90
2011,06,02,07,49,10.90
2011,06,02,07,51,11.00
2011,06,02,07,52,11.00
2011,06,02,07,53,11.00
2011,06,02,07,54,11.00
2011,06,02,07,55,11.10
2011,06,02,07,57,11.10
2011,06,02,07,58,11.10
2011,06,02,07,59,11.10
2011,06,02,08,00,11.10
2011,06,02,08,02,11.10
2011,06,02,08,03,11.10
2011,06,02,08,04,11.10
2011,06,02,08,05,11.10
2011,06,02,08,07,11.10
2011,06,02,08,08,11.10
2011,06,02,08,09,11.10
2011,06,02,08,10,11.00
2011,06,02,08,11,11.10
2011,06,02,08,12,11.10
2011,06,02,08,13,11.10
2011,06,02,08,14,11.10
2011,06,02,08,15,11.10
2011,06,02,08,16,11.10
2011,06,02,08,18,11.10
2011,06,02,08,19,11.10
2011,06,02,08,20,11.10
2011,06,02,08,22,11.10
2011,06,02,08,23,11.20
2011,06,02,08,24,11.20
2011,06,02,08,26,11.20
2011,06,02,08,27,11.20
2011,06,02,08,28,11.20
2011,06,02,08,29,11.20
2011,06,02,08,30,11.20
2011,06,02,08,32,11.20
2011,06,02,08,33,11.20
2011,06,02,08,34,11.20
2011,06,02,08,35,11.20
2011,06,02,08,37,11.20
2011,06,02,08,38,11.20
2011,06,02,08,39,11.20
2011,06,02,08,40,11.30
2011,06,02,08,42,11.30
2011,06,02,08,43,11.30
2011,06,02,08,44,11.30
2011,06,02,08,45,11.30
2011,06,02,08,47,11.30
2011,06,02,08,48,11.30
2011,06,02,08,49,11.40
2011,06,02,08,51,11.40
2011,06,02,08,52,11.40
2011,06,02,08,53,11.50
2011,06,02,08,54,11.60
2011,06,02,08,55,11.60
2011,06,02,08,56,11.60
2011,06,02,08,57,11.60
2011,06,02,08,58,11.60
2011,06,02,08,59,11.60
2011,06,02,09,00,11.60
2011,06,02,09,01,11.60
2011,06,02,09,02,11.60
2011,06,02,09,03,11.60
2011,06,02,09,05,11.60
2011,06,02,09,06,11.60
2011,06,02,09,07,11.70
2011,06,02,09,08,11.70
2011,06,02,09,09,11.70
2011,06,02,09,10,11.80
2011,06,02,09,11,11.70
2011,06,02,09,12,11.80
2011,06,02,09,14,11.80
2011,06,02,09,15,11.80
2011,06,02,09,16,11.80
2011,06,02,09,17,11.80
2011,06,02,09,18,11.80
2011,06,02,09,20,11.80
2011,06,02,09,21,11.90
2011,06,02,09,22,11.90
2011,06,02,09,23,11.90
2011,06,02,09,25,12.00
2011,06,02,09,26,12.10
2011,06,02,09,27,12.20
2011,06,02,09,28,12.20
2011,06,02,09,30,12.20
2011,06,02,09,31,12.20
2011,06,02,09,32,12.30
2011,06,02,09,33,12.30
2011,06,02,09,35,12.30
2011,06,02,09,36,12.30
2011,06,02,09,37,12.40
2011,06,02,09,38,12.60
2011,06,02,09,39,12.60
2011,06,02,09,41,12.60
2011,06,02,09,42,12.70
2011,06,02,09,43,12.70
2011,06,02,09,44,12.70
2011,06,02,09,46,12.70
2011,06,02,09,47,12.70
2011,06,02,09,48,12.70
2011,06,02,09,49,12.80
2011,06,02,09,51,12.80
2011,06,02,09,52,12.80
2011,06,02,09,53,12.70
2011,06,02,09,54,12.70
2011,06,02,09,55,12.60
2011,06,02,09,57,12.60
2011,06,02,09,58,12.50
2011,06,02,09,59,12.50
2011,06,02,10,00,12.60
2011,06,02,10,02,12.60
2011,06,02,10,03,12.60
2011,06,02,10,04,12.60
2011,06,02,10,06,12.60
2011,06,02,10,07,12.60
2011,06,02,10,08,12.60
2011,06,02,10,09,12.70
2011,06,02,10,10,12.70
2011,06,02,10,11,12.70
2011,06,02,10,12,12.80
2011,06,02,10,13,12.70
2011,06,02,10,14,12.70
2011,06,02,10,15,12.70
2011,06,02,10,17,12.70
2011,06,02,10,18,12.60
2011,06,02,10,19,12.60
2011,06,02,10,21,12.70
2011,06,02,10,22,12.70
2011,06,02,10,23,12.70
2011,06,02,10,24,12.70
2011,06,02,10,26,12.70
2011,06,02,10,27,12.80
2011,06,02,10,28,12.80
2011,06,02,10,29,12.80
2011,06,02,10,30,12.80
2011,06,02,10,31,12.80
2011,06,02,10,32,12.90
2011,06,02,10,33,12.90
2011,06,02,10,34,13.00
2011,06,02,10,36,13.10
2011,06,02,10,37,13.10
2011,06,02,10,38,13.00
2011,06,02,10,39,12.90
2011,06,02,10,40,12.80
2011,06,02,10,42,12.80
2011,06,02,10,43,12.90
2011,06,02,10,44,12.90
2011,06,02,10,45,12.90
2011,06,02,10,47,13.00
2011,06,02,10,48,12.90
2011,06,02,10,49,13.00
2011,06,02,10,50,13.10
2011,06,02,10,52,13.10
2011,06,02,10,53,13.20
2011,06,02,10,54,13.30
2011,06,02,10,55,13.30
2011,06,02,10,57,13.30
2011,06,02,10,58,13.40
2011,06,02,10,59,13.30
2011,06,02,11,01,13.30
2011,06,02,11,02,13.30
2011,06,02,11,03,13.30
2011,06,02,11,04,13.30
2011,06,02,11,06,13.40
2011,06,02,11,07,13.40
2011,06,02,11,08,13.40
2011,06,02,11,09,13.40
2011,06,02,11,11,13.40
2011,06,02,11,12,13.40
2011,06,02,11,13,13.40
2011,06,02,11,14,13.40
2011,06,02,11,16,13.30
2011,06,02,11,17,13.40
2011,06,02,11,18,13.40
2011,06,02,11,19,13.40
2011,06,02,11,21,13.40
2011,06,02,11,22,13.30
2011,06,02,11,23,13.30
2011,06,02,11,24,13.30
2011,06,02,11,26,13.20
2011,06,02,11,27,13.20
2011,06,02,11,28,13.20
2011,06,02,11,30,13.20
2011,06,02,11,31,13.20
2011,06,02,11,32,13.20
2011,06,02,11,33,13.20
2011,06,02,11,34,13.30
2011,06,02,11,35,13.30
2011,06,02,11,36,13.30
2011,06,02,11,37,13.30
2011,06,02,11,38,13.30
2011,06,02,11,39,13.30
2011,06,02,11,40,13.20
2011,06,02,11,41,13.10
2011,06,02,11,42,13.00
2011,06,02,11,44,12.90
2011,06,02,11,45,12.80
2011,06,02,11,46,12.80
2011,06,02,11,48,12.80
2011,06,02,11,49,12.80
2011,06,02,11,50,12.80
2011,06,02,11,51,12.80
2011,06,02,11,52,12.80
2011,06,02,11,54,12.90
2011,06,02,11,55,13.00
2011,06,02,11,56,13.10
2011,06,02,11,57,13.10
2011,06,02,11,59,13.10
2011,06,02,12,00,13.10
2011,06,02,12,01,13.10
2011,06,02,12,02,13.00
2011,06,02,12,03,13.00
2011,06,02,12,05,13.10
2011,06,02,12,06,13.10
2011,06,02,12,07,13.20
2011,06,02,12,08,13.20
2011,06,02,12,10,13.20
2011,06,02,12,11,13.20
2011,06,02,12,12,13.20
2011,06,02,12,14,13.20
2011,06,02,12,15,13.30
2011,06,02,12,16,13.30
2011,06,02,12,17,13.30
2011,06,02,12,19,13.30
2011,06,02,12,20,13.30
2011,06,02,12,21,13.30
2011,06,02,12,23,13.30
2011,06,02,12,24,13.30
2011,06,02,12,25,13.30
2011,06,02,12,26,13.30
2011,06,02,12,28,13.30
2011,06,02,12,29,13.30
2011,06,02,12,30,13.40
2011,06,02,12,31,13.40
2011,06,02,12,33,13.40
2011,06,02,12,34,13.40
2011,06,02,12,35,13.40
2011,06,02,12,36,13.50
2011,06,02,12,38,13.60
2011,06,02,12,39,13.70
2011,06,02,12,40,13.80
2011,06,02,12,41,13.80
2011,06,02,12,43,13.80
2011,06,02,12,44,13.70
2011,06,02,12,45,13.70
2011,06,02,12,46,13.70
2011,06,02,12,48,13.70
2011,06,02,12,49,13.70
2011,06,02,12,50,13.70
2011,06,02,12,51,13.70
2011,06,02,12,53,13.70
2011,06,02,12,54,13.70
2011,06,02,12,55,13.60
2011,06,02,12,56,13.60
2011,06,02,12,57,13.60
2011,06,02,12,59,13.50
2011,06,02,13,00,13.60
2011,06,02,13,01,13.60
2011,06,02,13,02,13.60
2011,06,02,13,03,13.60
2011,06,02,13,04,13.60
2011,06,02,13,05,13.60
2011,06,02,13,07,13.70
2011,06,02,13,08,13.70
2011,06,02,13,09,13.70
2011,06,02,13,10,13.70
2011,06,02,13,11,13.70
2011,06,02,13,12,13.70
2011,06,02,13,13,13.70
2011,06,02,13,14,13.70
2011,06,02,13,15,13.70
2011,06,02,13,16,13.60
2011,06,02,13,17,13.60
2011,06,02,13,19,13.70
2011,06,02,13,20,13.70
2011,06,02,13,21,13.70
2011,06,02,13,22,13.70
2011,06,02,13,24,13.70
2011,06,02,13,25,13.80
2011,06,02,13,26,13.80
2011,06,02,13,28,13.80
2011,06,02,13,29,13.80
2011,06,02,13,30,13.80
2011,06,02,13,31,13.90
2011,06,02,13,33,13.90
2011,06,02,13,34,13.80
2011,06,02,13,35,13.80
2011,06,02,13,37,13.80
2011,06,02,13,38,13.70
2011,06,02,13,39,13.60
2011,06,02,13,41,13.60
2011,06,02,13,42,13.40
2011,06,02,13,43,13.40
2011,06,02,13,44,13.40
2011,06,02,13,45,13.30
2011,06,02,13,46,13.40
2011,06,02,13,47,13.40
2011,06,02,13,48,13.40
2011,06,02,13,50,13.50
2011,06,02,13,51,13.60
2011,06,02,13,52,13.60
2011,06,02,13,53,13.60
2011,06,02,13,54,13.60
2011,06,02,13,56,13.60
2011,06,02,13,57,13.60
2011,06,02,13,58,13.60
2011,06,02,13,59,13.60
2011,06,02,14,01,13.60
2011,06,02,14,02,13.70
2011,06,02,14,03,13.70
2011,06,02,14,04,13.70
2011,06,02,14,05,13.80
2011,06,02,14,06,13.80
2011,06,02,14,07,13.90
2011,06,02,14,08,13.90
2011,06,02,14,09,13.90
2011,06,02,14,10,14.00
2011,06,02,14,11,14.00
2011,06,02,14,12,14.00
2011,06,02,14,13,13.90
2011,06,02,14,14,13.90
2011,06,02,14,15,13.90
2011,06,02,14,16,13.90
2011,06,02,14,17,13.80
2011,06,02,14,18,13.80
2011,06,02,14,19,13.80
2011,06,02,14,21,13.80
2011,06,02,14,22,13.90
2011,06,02,14,23,13.90
2011,06,02,14,24,13.90
2011,06,02,14,26,13.90
2011,06,02,14,27,13.90
2011,06,02,14,28,13.90
2011,06,02,14,29,13.90
2011,06,02,14,30,13.90
2011,06,02,14,31,13.90
2011,06,02,14,32,13.90
2011,06,02,14,33,13.90
2011,06,02,14,35,13.90
2011,06,02,14,36,13.90
2011,06,02,14,37,13.90
2011,06,02,14,38,13.90
2011,06,02,14,40,13.90
2011,06,02,14,41,13.90
2011,06,02,14,42,13.90
2011,06,02,14,43,13.90
2011,06,02,14,45,13.90
2011,06,02,14,46,13.90
2011,06,02,14,47,13.90
2011,06,02,14,48,13.90
2011,06,02,14,50,13.90
2011,06,02,14,51,13.90
2011,06,02,14,52,13.90
2011,06,02,14,53,13.90
2011,06,02,14,55,13.90
2011,06,02,14,56,13.90
2011,06,02,14,57,13.90
2011,06,02,14,58,14.00
2011,06,02,14,59,14.10
2011,06,02,15,00,14.10
2011,06,02,15,01,14.10
2011,06,02,15,02,14.20
2011,06,02,15,03,14.20
2011,06,02,15,05,14.20
2011,06,02,15,06,14.20
2011,06,02,15,07,14.20
2011,06,02,15,08,14.20
2011,06,02,15,10,14.10
2011,06,02,15,11,14.10
2011,06,02,15,12,14.10
2011,06,02,15,13,14.10
2011,06,02,15,15,14.10
2011,06,02,15,16,14.10
2011,06,02,15,17,14.20
2011,06,02,15,19,14.20
2011,06,02,15,20,14.20
2011,06,02,15,21,14.20
2011,06,02,15,22,14.20
2011,06,02,15,24,14.20
2011,06,02,15,25,14.30
2011,06,02,15,26,14.30
2011,06,02,15,27,14.30
2011,06,02,15,28,14.40
2011,06,02,15,30,14.40
2011,06,02,15,31,14.40
2011,06,02,15,32,14.40
2011,06,02,15,33,14.50
2011,06,02,15,34,14.50
2011,06,02,15,35,14.50
2011,06,02,15,36,14.60
2011,06,02,15,37,14.60
2011,06,02,15,38,14.60
2011,06,02,15,39,14.60
2011,06,02,15,41,14.40
2011,06,02,15,42,14.40
2011,06,02,15,43,14.40
2011,06,02,15,44,14.40
2011,06,02,15,45,14.40
2011,06,02,15,47,14.40
2011,06,02,15,48,14.40
2011,06,02,15,49,14.50
2011,06,02,15,51,14.60
2011,06,02,15,53,14.60
2011,06,02,15,54,14.50
2011,06,02,15,56,14.50
2011,06,02,15,57,14.50
2011,06,02,15,58,14.50
2011,06,02,15,59,14.60
2011,06,02,16,01,14.60
2011,06,02,16,02,14.60
2011,06,02,16,03,14.60
2011,06,02,16,04,14.60
2011,06,02,16,06,14.60
2011,06,02,16,07,14.60
2011,06,02,16,08,14.70
2011,06,02,16,09,14.70
2011,06,02,16,10,14.70
2011,06,02,16,11,14.70
2011,06,02,16,12,14.70
2011,06,02,16,13,14.70
2011,06,02,16,14,14.80
2011,06,02,16,15,14.80
2011,06,02,16,16,14.80
2011,06,02,16,17,14.80
2011,06,02,16,19,14.80
2011,06,02,16,21,14.80
2011,06,02,16,22,14.80
2011,06,02,16,23,14.90
2011,06,02,16,24,14.90
2011,06,02,16,26,14.90
2011,06,02,16,29,15.00
2011,06,02,16,30,15.10
2011,06,02,16,31,15.10
2011,06,02,16,32,15.10
2011,06,02,16,33,15.10
2011,06,02,16,34,15.10
2011,06,02,16,36,15.10
2011,06,02,16,37,15.20
2011,06,02,16,38,15.10
2011,06,02,16,40,15.10
2011,06,02,16,41,15.10
2011,06,02,16,42,15.10
2011,06,02,16,43,15.20
2011,06,02,16,45,15.30
2011,06,02,16,46,15.30
2011,06,02,16,47,15.40
2011,06,02,16,48,15.40
2011,06,02,16,50,15.30
2011,06,02,16,51,15.30
2011,06,02,16,52,15.30
2011,06,02,16,53,15.20
2011,06,02,16,55,15.20
2011,06,02,16,56,15.20
2011,06,02,16,57,15.20
2011,06,02,16,58,15.20
2011,06,02,16,59,15.20
2011,06,02,17,00,15.30
2011,06,02,17,01,15.30
2011,06,02,17,02,15.40
2011,06,02,17,03,15.50
2011,06,02,17,05,15.60
2011,06,02,17,06,15.80
2011,06,02,17,07,15.80
2011,06,02,17,08,15.90
2011,06,02,17,10,16.00
2011,06,02,17,11,16.10
2011,06,02,17,12,16.20
2011,06,02,17,14,16.20
2011,06,02,17,15,16.20
2011,06,02,17,16,16.20
2011,06,02,17,18,16.20
2011,06,02,17,19,16.30
2011,06,02,17,20,16.30
2011,06,02,17,22,16.20
2011,06,02,17,23,16.20
2011,06,02,17,24,16.00
2011,06,02,17,25,15.90
2011,06,02,17,26,15.90
2011,06,02,17,28,15.90
2011,06,02,17,29,15.80
2011,06,02,17,30,15.70
2011,06,02,17,31,15.60
2011,06,02,17,33,15.40
2011,06,02,17,34,15.30
2011,06,02,17,35,15.20
2011,06,02,17,37,15.20
2011,06,02,17,38,15.20
2011,06,02,17,39,15.20
2011,06,02,17,40,15.20
2011,06,02,17,42,15.20
2011,06,02,17,43,15.20
2011,06,02,17,44,15.20
2011,06,02,17,45,15.10
2011,06,02,17,47,15.20
2011,06,02,17,48,15.20
2011,06,02,17,49,15.20
2011,06,02,17,50,15.20
2011,06,02,17,52,15.20
2011,06,02,17,53,15.20
2011,06,02,17,54,15.20
2011,06,02,17,55,15.10
2011,06,02,17,57,15.10
2011,06,02,17,58,14.90
2011,06,02,17,59,14.80
2011,06,02,18,00,14.80
2011,06,02,18,01,14.80
2011,06,02,18,02,14.80
2011,06,02,18,03,14.80
2011,06,02,18,04,14.80
2011,06,02,18,05,14.80
2011,06,02,18,07,14.80
2011,06,02,18,08,14.80
2011,06,02,18,09,14.80
2011,06,02,18,11,14.80
2011,06,02,18,12,14.90
2011,06,02,18,13,14.90
2011,06,02,18,15,14.90
2011,06,02,18,16,15.00
2011,06,02,18,17,15.10
2011,06,02,18,18,15.10
2011,06,02,18,20,15.20
2011,06,02,18,21,15.20
2011,06,02,18,22,15.20
2011,06,02,18,23,15.20
2011,06,02,18,25,15.20
2011,06,02,18,26,15.10
2011,06,02,18,27,15.10
2011,06,02,18,28,15.10
2011,06,02,18,29,15.10
2011,06,02,18,31,15.10
2011,06,02,18,32,15.10
2011,06,02,18,33,15.10
2011,06,02,18,34,15.10
2011,06,02,18,36,15.10
2011,06,02,18,37,15.20
2011,06,02,18,38,15.20
2011,06,02,18,39,15.20
2011,06,02,18,41,15.10
2011,06,02,18,42,15.10
2011,06,02,18,43,15.10
2011,06,02,18,44,15.10
2011,06,02,18,46,15.00
2011,06,02,18,47,14.80
2011,06,02,18,48,14.80
2011,06,02,18,49,14.70
2011,06,02,18,51,14.60
2011,06,02,18,52,14.60
2011,06,02,18,53,14.60
2011,06,02,18,54,14.50
2011,06,02,18,56,14.50
2011,06,02,18,57,14.40
2011,06,02,18,58,14.40
2011,06,02,18,59,14.40
2011,06,02,19,01,14.50
2011,06,02,19,02,14.40
2011,06,02,19,03,14.40
2011,06,02,19,04,14.40
2011,06,02,19,06,14.40
2011,06,02,19,07,14.30
2011,06,02,19,08,14.30
2011,06,02,19,10,14.30
2011,06,02,19,11,14.30
2011,06,02,19,12,14.20
2011,06,02,19,14,14.20
2011,06,02,19,15,14.20
2011,06,02,19,16,14.10
2011,06,02,19,17,14.10
2011,06,02,19,19,14.10
2011,06,02,19,20,14.00
2011,06,02,19,21,13.90
2011,06,02,19,22,13.90
2011,06,02,19,24,13.90
2011,06,02,19,25,13.90
2011,06,02,19,26,13.90
2011,06,02,19,27,13.90
2011,06,02,19,28,13.90
2011,06,02,19,29,13.90
2011,06,02,19,31,13.80
2011,06,02,19,32,13.80
2011,06,02,19,34,13.80
2011,06,02,19,36,13.80
2011,06,02,19,37,13.80
2011,06,02,19,38,13.80
2011,06,02,19,39,13.90
2011,06,02,19,40,13.90
2011,06,02,19,42,13.80
2011,06,02,19,43,13.80
2011,06,02,19,44,13.80
2011,06,02,19,45,13.80
2011,06,02,19,47,13.80
2011,06,02,19,48,13.80
2011,06,02,19,49,13.80
2011,06,02,19,51,13.80
2011,06,02,19,52,13.80
2011,06,02,19,54,13.80
2011,06,02,19,55,13.80
2011,06,02,19,57,13.80
2011,06,02,19,58,13.80
2011,06,02,19,59,13.80
2011,06,02,20,00,13.80
2011,06,02,20,02,13.80
2011,06,02,20,03,13.80
2011,06,02,20,05,13.80
2011,06,02,20,07,13.80
2011,06,02,20,08,13.80
2011,06,02,20,09,13.70
2011,06,02,20,11,13.80
2011,06,02,20,12,13.70
2011,06,02,20,13,13.70
2011,06,02,20,14,13.70
2011,06,02,20,15,13.70
2011,06,02,20,17,13.70
2011,06,02,20,18,13.70
2011,06,02,20,19,13.60
2011,06,02,20,21,13.60
2011,06,02,20,23,13.60
2011,06,02,20,24,13.60
2011,06,02,20,25,13.60
2011,06,02,20,27,13.60
2011,06,02,20,29,13.50
2011,06,02,20,30,13.50
2011,06,02,20,32,13.50
2011,06,02,20,33,13.50
2011,06,02,20,34,13.50
2011,06,02,20,35,13.40
2011,06,02,20,36,13.40
2011,06,02,20,37,13.40
2011,06,02,20,38,13.40
2011,06,02,20,39,13.40